Theta_e
308 307 308 311 309 308 311 313 309 309 308 308 305 306 305 303 298 293 294 295 295 301 299 301 303 304 303 303 302 303 302 304 308 301 299 298 297 304 306 304 304 304 303 302 302 300 301 302 304 307 309 308 307 306 305 304 304 305 307 307 306 305 305 307 308 310 310 311 310 308 308 308 309 308
307 307 306 306 306 307 310 313 309 308 307 305 304 302 301 303 301 296 296 296 295 300 300 298 302 303 304 303 303 302 301 307 307 301 299 298 297 305 305 303 301 301 301 302 300 300 300 301 304 307 305 304 303 303 303 302 303 305 306 306 306 305 305 306 308 309 309 309 309 308 308 308 308 308
307 306 306 305 305 306 309 310 309 308 307 305 303 302 301 301 301 300 298 295 297 299 302 300 298 303 303 305 303 304 302 304 307 301 299 298 302 306 304 303 302 302 302 301 300 302 302 301 301 303 305 306 306 305 305 303 305 306 305 304 305 305 304 305 306 309 309 309 309 307 306 307 307 308
306 306 306 304 305 306 307 308 308 306 306 305 303 303 302 298 298 299 298 297 299 299 300 300 298 302 303 304 303 303 304 305 310 303 300 299 306 302 300 302 303 302 301 301 300 302 305 304 302 302 303 304 304 303 302 302 305 304 302 302 304 305 304 304 305 307 308 309 308 307 305 306 306 307
307 308 307 305 305 305 307 306 307 307 306 306 306 304 301 300 300 300 297 296 297 300 298 297 299 301 304 303 304 303 302 302 303 307 301 300 299 298 298 297 302 302 301 301 301 301 301 300 301 300 299 299 299 301 301 301 303 301 301 301 303 304 304 304 304 305 307 308 307 306 305 305 306 307
307 304 305 305 304 304 305 306 307 307 306 306 305 303 302 301 301 300 297 296 297 299 300 299 299 299 302 303 301 304 302 300 301 304 303 300 299 297 296 295 296 300 302 301 301 301 301 300 301 300 300 300 300 301 300 299 300 300 299 297 301 304 304 304 303 304 304 305 305 305 304 305 306 307
304 304 305 304 304 305 304 303 303 304 305 305 305 304 303 302 301 301 300 298 297 298 298 298 298 298 299 302 301 300 301 299 298 299 302 303 301 300 296 295 295 298 300 300 300 300 300 300 300 300 300 300 300 301 300 300 300 299 298 297 298 301 303 302 302 302 303 304 303 304 303 304 306 307
303 303 303 303 303 304 304 302 303 303 304 304 304 303 302 302 302 303 301 301 298 297 299 298 299 299 298 299 298 298 299 299 299 297 297 300 300 298 299 296 295 297 299 300 300 301 301 301 301 301 300 301 301 301 300 300 300 300 298 298 298 298 300 300 299 300 302 302 303 303 302 303 305 308
303 303 303 303 303 304 304 302 304 305 304 305 305 304 304 303 304 304 303 301 299 299 298 299 299 298 298 299 299 298 299 300 301 301 298 299 299 298 298 299 299 301 301 300 300 300 300 300 301 301 301 301 301 300 300 300 300 300 300 299 299 298 298 300 301 302 302 301 302 301 301 300 304 306
303 303 303 303 303 304 305 303 303 303 304 304 304 303 303 303 303 303 301 301 300 300 299 299 299 298 300 299 300 299 299 301 301 301 301 301 300 299 299 301 303 301 300 300 300 302 300 301 301 301 301 300 300 299 299 299 299 299 299 299 298 298 298 298 299 300 298 299 301 300 300 299 302 304
304 303 304 303 303 304 304 305 304 304 303 305 303 304 304 304 304 303 302 301 300 299 298 297 298 298 299 299 300 301 299 301 300 301 299 299 299 298 299 300 301 301 300 300 300 299 299 301 301 301 300 300 300 299 300 299 299 298 297 297 296 295 296 296 296 298 299 300 300 298 297 296 297 299
304 303 304 304 304 304 305 306 305 305 306 303 303 303 304 304 304 303 302 301 300 299 299 299 299 297 297 300 299 301 299 300 299 300 297 299 297 297 297 297 298 298 298 297 297 299 299 299 300 299 300 300 299 299 299 300 299 298 297 296 297 298 297 297 297 298 299 299 299 297 296 297 298 298
304 304 303 303 303 307 312 308 308 307 308 307 305 303 302 303 304 303 302 303 300 300 300 299 298 298 298 297 299 297 297 297 299 299 295 296 295 296 298 298 298 298 296 296 295 297 298 297 297 296 296 299 298 297 299 298 299 298 297 297 297 297 298 298 299 299 299 299 298 298 297 297 297 296
304 305 304 307 313 312 311 307 303 302 304 308 309 307 304 304 303 303 302 301 302 301 300 300 300 299 299 298 299 299 297 295 296 297 297 298 293 294 294 296 296 298 295 295 294 295 297 296 296 295 295 296 296 296 295 296 296 297 296 297 297 297 297 297 297 297 297 297 297 297 297 297 297 297
306 306 306 305 309 312 313 308 301 300 300 300 302 304 305 307 306 303 302 302 301 302 302 300 298 300 300 298 296 296 297 295 297 297 296 296 294 293 292 293 295 295 295 292 291 294 295 294 294 293 294 295 295 294 296 297 297 296 296 297 297 297 297 297 296 296 296 296 296 296 296 296 296 297
305 307 308 306 306 307 307 307 304 302 300 299 299 300 299 300 302 303 305 303 300 299 300 299 300 299 300 298 297 295 295 295 294 293 294 291 294 292 291 289 292 294 295 291 290 292 292 292 293 292 293 294 293 295 297 297 296 296 296 296 296 296 296 297 296 296 296 295 296 296 296 296 296 295
308 308 308 308 309 310 313 312 304 302 300 297 296 298 299 297 296 297 297 300 304 303 303 302 301 300 298 297 298 298 298 296 297 293 292 290 290 289 289 289 288 292 292 289 289 289 290 290 289 290 292 292 292 293 296 296 296 296 296 296 296 295 295 296 296 295 295 295 296 296 296 296 296 296
309 309 309 309 309 307 306 307 304 303 299 297 298 298 297 297 298 296 296 295 297 302 305 303 303 303 300 302 299 300 297 298 296 295 293 292 292 291 291 289 290 292 293 291 287 287 288 288 287 288 290 291 292 292 294 295 296 296 295 295 295 295 295 295 295 294 294 294 294 295 295 295 295 295
310 310 310 310 310 309 308 308 307 303 300 299 298 298 299 298 296 295 295 295 296 299 302 305 306 306 303 301 300 300 298 299 297 296 295 294 293 293 291 290 289 290 292 289 289 288 286 284 287 287 289 290 289 289 293 295 295 295 295 294 294 294 294 294 294 294 294 294 294 294 293 294 294 294
310 310 309 309 309 309 309 305 301 301 303 303 303 301 299 296 295 294 294 292 292 295 298 302 305 304 302 300 301 300 297 296 294 294 294 293 293 293 291 289 287 289 290 289 285 286 286 285 287 286 287 287 287 288 287 292 295 295 295 294 294 294 294 294 293 293 294 294 294 294 293 293 293 293
309 309 309 309 308 308 307 302 296 297 299 304 304 303 302 298 296 296 295 292 292 292 293 294 295 295 294 294 294 294 294 295 295 295 294 292 291 290 288 289 285 287 286 288 287 285 285 285 284 287 286 286 287 286 288 288 293 295 294 294 294 294 294 293 293 293 293 293 293 293 293 293 293 294
308 309 309 311 309 307 306 300 295 295 300 304 304 303 300 297 295 293 292 294 293 292 292 291 291 291 291 292 292 292 293 293 295 295 292 290 289 289 288 286 285 284 285 287 289 285 285 283 283 285 284 284 283 285 286 288 292 293 292 293 294 293 293 293 292 292 293 294 293 293 293 293 294 290
306 307 307 307 307 305 302 298 296 296 300 307 306 304 301 299 298 296 292 293 292 292 293 291 292 292 293 294 293 294 293 293 295 292 292 291 292 290 288 287 284 285 285 286 289 286 283 283 284 284 284 281 283 282 286 289 289 289 290 290 290 292 293 292 291 292 293 293 293 293 293 293 293 290
307 304 305 304 298 297 297 297 296 295 296 305 307 304 302 301 300 296 293 294 295 294 294 292 293 292 292 291 291 291 293 295 295 291 291 291 292 292 290 288 284 284 283 286 289 285 283 283 285 283 284 283 280 281 284 287 287 289 289 289 287 291 292 291 291 292 292 292 293 293 293 293 293 290
306 306 305 304 301 297 296 296 296 295 295 297 305 304 305 304 301 295 294 294 294 295 293 292 291 291 292 291 290 290 291 292 291 290 290 289 291 291 288 285 284 283 284 284 291 284 285 284 283 281 282 282 281 283 281 282 286 287 288 286 286 288 289 289 290 289 290 291 291 292 292 293 293 292
303 304 305 304 301 297 295 295 295 295 295 294 300 303 299 294 292 296 297 294 293 293 293 292 291 291 292 291 291 291 292 291 292 290 290 290 288 286 288 287 285 283 286 286 291 284 284 283 283 284 281 282 282 282 283 282 283 284 284 286 286 288 288 288 286 287 288 288 289 290 290 292 292 292
307 305 303 303 300 296 294 294 294 294 293 293 298 296 294 293 292 294 295 294 295 294 293 292 291 291 292 292 291 291 290 289 290 290 289 289 289 290 289 287 286 287 286 286 291 286 285 284 284 284 283 281 282 281 281 281 284 283 286 286 287 288 288 284 285 287 287 288 289 291 291 290 291 291
307 306 303 301 297 295 294 293 293 293 293 295 294 294 294 292 292 297 295 294 295 293 292 291 290 291 290 290 290 289 289 289 288 288 288 287 287 287 287 286 289 287 285 286 285 284 285 284 284 284 282 282 281 281 281 282 284 283 284 287 287 287 287 287 286 287 288 287 287 287 287 287 289 288
303 301 298 297 295 294 293 293 292 292 292 292 293 294 293 294 296 296 296 295 293 292 291 291 291 290 290 290 290 289 289 288 288 288 287 286 285 285 286 286 286 285 287 287 284 284 284 285 284 283 282 281 282 283 283 282 283 282 284 285 284 285 287 287 285 284 287 287 285 286 286 286 286 286
295 294 294 294 293 292 292 294 295 295 295 292 292 293 293 297 296 296 295 293 292 291 290 290 290 289 288 289 289 289 289 289 288 287 287 287 286 287 288 288 287 286 284 284 285 285 284 284 285 283 283 282 283 283 283 282 282 283 284 284 284 286 283 284 286 285 286 286 286 286 287 286 286 286
295 296 296 297 293 293 292 292 293 294 292 291 292 293 296 298 297 296 295 294 292 290 290 289 289 288 288 288 288 287 288 287 286 288 288 287 285 286 285 285 284 284 284 283 283 285 285 284 284 284 283 283 284 283 284 284 282 283 283 283 284 282 285 286 286 286 285 286 286 285 286 285 286 287
298 297 292 291 292 292 292 293 292 290 290 290 290 294 295 296 295 295 293 292 291 291 290 289 287 285 286 285 286 287 287 287 286 287 287 286 285 285 284 283 282 282 282 282 283 284 286 285 284 284 284 283 283 284 282 282 283 282 283 283 284 283 285 284 284 285 285 285 284 284 285 284 285 286
292 292 292 289 290 290 289 289 289 289 289 287 290 292 292 292 293 292 292 290 289 289 288 287 286 285 285 285 286 286 286 286 285 285 286 286 285 283 283 283 283 282 281 281 282 283 283 283 284 284 284 284 285 284 281 282 280 281 282 283 282 283 284 284 284 285 285 284 284 284 284 285 286 286
288 288 288 288 288 288 288 288 288 288 288 288 288 288 289 290 291 290 290 290 288 288 288 287 286 285 286 285 285 285 285 283 283 285 286 284 283 280 281 281 281 280 281 282 282 282 282 282 283 284 282 282 284 284 285 283 281 282 282 282 282 283 285 285 284 284 283 283 283 283 283 284 285 285
287 287 288 287 286 286 287 287 287 287 287 288 288 288 288 289 289 288 288 288 287 287 286 286 285 285 286 285 285 285 284 284 284 283 283 283 284 283 282 280 281 281 281 280 281 282 281 281 281 282 281 283 284 283 288 286 283 285 285 284 284 283 284 285 284 284 283 282 282 283 283 284 285 285
287 287 287 286 285 284 285 285 286 286 287 287 287 287 287 287 288 288 287 287 287 286 286 285 285 286 285 285 284 284 283 283 284 284 283 283 282 281 281 281 281 281 281 281 281 282 282 281 281 281 282 283 283 283 284 290 291 289 287 285 285 284 284 283 283 283 283 283 282 282 283 283 284 285
288 286 285 283 283 285 285 286 286 286 286 286 286 286 286 286 287 287 287 287 288 286 286 285 285 285 285 284 282 281 282 283 282 282 282 282 281 280 280 279 280 281 281 282 282 282 282 282 283 283 282 283 282 282 284 285 287 290 289 287 285 285 284 283 283 283 284 283 283 283 282 282 282 284
288 287 285 283 283 284 285 286 286 286 286 286 286 287 287 287 287 287 288 287 286 286 286 286 285 285 285 284 283 282 281 281 281 281 279 278 278 278 278 279 279 280 281 282 281 282 282 283 282 283 283 283 282 282 283 286 286 287 290 289 286 285 284 284 283 282 283 283 283 283 282 282 283 285
288 287 287 286 285 284 284 285 287 287 287 287 286 286 286 286 287 287 287 287 286 286 286 286 285 284 284 283 283 283 282 281 280 278 277 277 277 278 278 278 279 280 280 281 281 282 281 281 282 282 284 284 283 284 284 284 284 286 288 289 287 285 284 282 283 284 284 283 283 283 281 282 285 287
287 288 289 288 288 287 287 286 287 289 288 288 288 287 287 287 287 287 287 286 286 286 286 285 284 284 283 282 282 281 281 281 280 277 276 276 277 277 277 277 278 278 278 278 279 281 281 281 284 285 286 286 286 286 286 285 284 284 286 287 289 287 284 282 284 284 283 283 283 282 282 284 284 285
288 289 289 290 289 289 288 288 289 288 288 288 288 287 288 287 287 287 286 286 286 286 285 285 285 284 283 283 283 283 280 277 277 276 276 276 277 278 280 282 280 280 279 278 279 280 283 285 286 286 286 285 285 285 284 283 284 285 286 286 286 287 288 287 286 285 282 282 282 281 281 281 281 281
288 289 289 290 290 289 290 289 289 288 288 288 287 287 287 287 286 287 286 286 286 285 285 284 284 284 283 283 282 282 282 280 277 276 276 275 277 280 282 282 281 280 279 279 279 282 285 286 285 284 282 284 285 284 284 284 284 285 285 285 281 284 286 288 288 287 285 283 281 281 281 280 279 278
288 290 290 289 290 290 290 289 289 288 287 287 286 287 286 286 286 286 286 286 285 285 285 284 284 283 282 280 280 281 280 278 277 276 276 278 279 280 280 279 280 281 283 283 283 283 284 285 283 284 284 284 284 284 284 284 285 284 285 285 284 282 284 287 287 287 287 287 286 285 284 283 281 279
289 289 289 290 289 290 289 289 288 287 287 287 287 287 287 286 286 286 286 285 285 285 284 283 283 282 280 279 278 277 278 277 275 276 276 277 279 280 280 281 282 282 282 283 284 285 284 283 284 285 284 284 285 285 284 285 284 284 284 284 284 284 285 285 284 284 283 284 286 286 286 287 286 285
288 288 288 287 288 288 288 287 287 287 287 287 287 286 286 286 286 286 286 285 285 284 284 283 282 280 279 278 279 278 277 280 276 275 276 278 279 280 281 282 283 283 283 284 284 284 285 284 284 282 282 284 285 285 285 285 285 285 285 285 285 285 285 284 284 280 277 276 280 285 285 286 286 286
Wind_Speed
4 4 5 6 6 6 4 4 5 6 5 6 7 8 11 8 9 4 3 3 2 2 2 2 3 4 3 3 2 2 3 2 0 0 0 0 1 2 4 4 4 3 3 3 3 3 4 4 4 5 4 5 4 4 4 5 6 6 5 7 8 8 9 8 7 8 9 11 12 11 11 11 11 12
4 3 3 2 4 4 6 6 6 6 7 6 6 4 4 8 10 6 7 6 3 3 2 2 2 3 4 4 3 3 3 3 2 1 0 1 2 3 2 2 2 3 3 3 3 3 3 3 4 3 3 3 3 2 2 2 3 3 4 4 6 7 7 7 7 7 8 8 10 10 10 11 11 12
4 4 3 2 3 4 5 5 5 5 7 6 6 4 5 1 4 9 5 5 4 3 6 5 3 4 5 4 3 3 3 3 2 1 0 1 3 4 3 2 1 3 4 4 4 4 3 3 4 4 3 2 1 2 2 1 2 2 2 2 3 4 5 5 6 6 6 7 8 9 9 10 11 12
3 4 5 3 4 5 6 5 5 6 4 6 6 6 6 3 3 4 6 6 7 4 5 5 4 4 4 3 4 4 2 2 4 2 2 2 3 3 3 4 3 2 4 5 5 4 5 5 5 5 5 4 4 3 3 3 3 2 1 2 1 1 2 3 4 5 5 5 6 6 7 8 9 10
3 4 5 4 4 4 6 6 6 5 5 4 5 5 6 5 4 6 4 5 3 1 2 3 5 2 4 3 4 4 3 1 1 4 3 3 3 3 4 4 4 4 3 5 5 5 6 6 6 6 7 6 5 5 5 5 5 4 4 3 2 2 2 3 3 4 5 5 6 6 7 7 8 8
3 4 6 4 4 4 6 6 6 6 6 6 6 5 7 6 6 4 4 3 4 6 1 3 1 1 2 4 2 6 5 2 2 4 3 3 3 3 3 4 4 4 3 4 5 5 6 7 7 8 8 7 6 6 7 7 8 7 6 5 5 4 4 4 5 4 4 5 6 6 7 8 8 8
4 4 5 4 4 3 5 4 4 4 5 5 7 8 6 7 7 5 4 5 3 6 5 2 4 3 3 6 6 4 2 2 4 3 4 5 3 3 3 3 3 3 3 3 3 5 6 7 8 8 8 8 7 6 6 7 9 9 8 7 6 6 5 5 4 5 4 4 6 7 8 9 9 9
4 5 5 4 4 4 5 4 4 3 4 5 5 6 5 6 8 6 4 5 6 4 6 4 6 4 5 6 2 0 2 2 3 3 2 2 3 3 1 1 2 3 3 1 2 4 6 8 8 7 7 7 6 6 6 6 7 8 7 6 6 6 5 5 5 5 5 3 6 8 8 9 9 10
4 4 5 4 4 5 6 4 5 5 5 5 6 6 5 6 6 4 4 4 4 6 7 5 3 2 4 2 2 3 4 1 0 0 1 1 2 1 0 0 2 2 1 4 3 3 5 6 5 5 3 7 8 10 11 10 10 8 7 4 4 5 5 5 6 6 5 3 4 6 7 8 8 9
3 4 4 4 4 5 6 5 3 3 5 4 4 5 4 4 3 4 3 3 4 6 7 6 4 2 4 3 1 4 5 6 3 2 3 3 2 2 3 4 3 1 2 3 2 3 4 6 1 6 11 12 12 12 12 12 12 12 10 9 5 3 4 6 6 7 5 2 1 3 5 6 7 9
3 3 4 4 3 4 4 5 5 4 4 4 4 5 5 4 5 4 4 4 4 5 5 3 3 4 2 2 3 0 2 3 4 5 3 2 2 4 4 4 3 3 3 2 1 2 1 3 6 9 11 12 12 11 12 12 12 12 12 11 9 7 4 5 7 8 7 3 2 3 5 5 7 8
3 4 4 4 4 4 5 6 5 5 5 3 4 2 4 5 5 5 4 4 5 5 5 6 6 3 3 0 1 1 3 2 1 1 3 7 3 3 2 1 3 1 1 1 2 3 4 6 6 8 9 11 11 10 9 12 12 13 13 13 13 11 9 7 7 8 7 5 5 6 6 7 8 8
2 3 3 3 4 4 6 7 7 8 7 6 5 3 3 4 5 4 4 5 5 5 5 5 1 3 3 3 5 3 3 6 8 4 2 3 2 4 6 2 1 0 0 1 3 4 3 3 5 4 6 6 7 8 8 7 11 12 12 12 12 12 12 11 9 8 7 6 6 7 8 9 9 9
3 4 3 3 4 6 7 8 8 8 8 7 7 8 6 6 5 5 6 6 6 6 6 7 6 5 6 6 5 5 4 2 3 5 4 6 2 3 3 0 0 2 1 1 3 2 3 2 4 4 6 4 4 4 5 5 6 9 11 11 11 11 11 11 11 10 9 8 7 8 9 10 10 10
5 4 4 4 4 4 4 4 7 7 8 8 7 9 10 9 9 7 6 6 5 6 6 4 4 6 7 6 4 4 4 2 5 5 5 7 5 5 5 3 1 1 2 1 2 4 4 2 5 3 5 4 3 3 3 5 9 9 9 9 9 9 9 9 9 9 9 8 8 8 9 10 10 11
4 5 5 4 3 3 4 3 3 5 7 8 8 7 9 8 7 5 7 6 4 4 5 4 6 5 7 5 5 4 4 4 3 4 5 4 5 4 3 2 3 1 1 1 2 1 3 2 5 4 3 2 1 1 3 7 8 8 7 7 7 7 8 8 8 8 8 8 7 8 8 9 9 10
5 6 6 6 4 5 4 1 1 1 1 5 6 5 1 3 3 3 4 3 5 6 5 6 6 7 5 4 6 6 7 5 7 4 4 3 4 4 4 5 2 1 1 3 2 1 2 3 2 3 2 1 0 1 4 5 5 4 5 5 6 5 6 7 8 9 9 9 9 9 9 9 9 8
6 7 7 7 7 5 4 4 4 4 3 2 1 0 1 2 4 4 2 3 2 6 6 6 7 6 5 8 7 6 7 9 8 8 6 5 5 5 4 2 4 1 3 1 3 1 1 2 1 1 4 0 0 0 2 3 2 2 2 3 4 5 5 6 7 8 9 10 10 10 11 11 9 8
7 7 7 7 8 7 7 7 7 6 5 4 4 2 1 1 1 2 5 6 5 3 3 5 7 6 7 4 5 7 5 4 6 6 7 8 6 6 4 6 3 3 4 2 2 3 1 2 1 2 4 4 2 1 3 6 4 2 3 3 4 5 5 6 8 9 10 10 11 11 11 11 10 9
7 6 5 6 7 7 8 9 12 9 7 6 4 3 3 2 1 1 3 2 0 3 4 5 6 3 5 6 8 7 6 6 6 7 7 6 6 7 4 3 2 2 3 3 2 1 1 1 1 2 3 2 3 2 3 5 5 4 6 6 6 7 7 7 8 10 10 11 11 11 11 10 10 10
6 6 5 6 6 6 6 7 11 12 11 5 5 6 7 5 5 6 2 3 8 5 4 5 3 6 7 9 10 10 10 8 7 7 7 5 5 6 3 0 2 1 2 2 2 1 0 1 0 3 3 2 3 2 3 4 5 8 7 7 8 8 9 9 9 9 10 10 11 10 11 9 9 9
5 6 10 9 6 6 5 6 10 11 9 5 7 7 7 6 6 5 1 1 4 7 10 9 9 9 9 10 10 10 10 9 6 8 6 6 6 5 5 4 2 1 1 1 1 1 2 1 1 2 4 3 1 2 3 3 6 7 6 8 9 9 9 9 9 9 10 10 10 10 10 10 8 6
6 5 7 10 9 8 8 11 11 13 12 9 8 9 8 8 9 7 6 5 4 4 6 3 4 5 6 5 5 4 7 6 5 4 6 6 6 6 4 5 3 1 1 2 1 1 1 0 1 1 4 3 4 2 3 5 5 5 5 5 6 8 8 9 9 9 9 10 10 10 10 10 7 5
7 6 6 7 12 13 12 14 15 14 14 10 8 7 8 8 11 6 6 6 8 7 7 5 3 4 4 5 4 4 5 6 4 5 6 6 6 6 6 5 3 1 2 2 1 2 1 1 1 1 1 1 3 2 5 6 4 5 5 5 5 7 7 7 7 9 9 9 10 10 10 10 8 5
8 7 6 6 9 12 14 15 15 15 16 14 8 10 10 12 6 10 7 5 6 8 6 6 5 5 5 4 4 4 5 5 5 4 3 3 4 7 6 6 3 2 2 2 2 2 0 1 1 1 1 1 3 3 3 4 6 5 3 3 4 7 6 6 4 6 6 8 9 9 9 9 10 7
7 8 8 7 10 13 13 13 14 15 15 15 5 8 7 8 13 12 7 7 5 5 6 6 6 6 5 6 6 6 5 4 4 5 5 4 4 3 6 8 7 5 1 1 2 2 2 1 0 1 1 1 4 1 4 4 5 5 5 5 4 6 4 5 6 5 5 5 5 6 8 10 9 10
9 7 7 9 12 12 13 13 13 12 13 9 8 12 13 14 14 10 7 8 7 7 6 6 6 6 6 6 6 6 6 5 5 6 6 5 6 5 4 3 4 6 3 1 1 3 3 0 0 1 1 1 3 3 3 4 5 4 6 6 5 6 5 3 5 5 6 5 6 8 8 7 8 9
8 9 8 9 12 12 13 14 13 13 12 10 14 14 14 13 11 8 9 8 7 7 7 7 7 6 5 6 6 5 5 6 6 6 5 5 4 5 5 4 4 3 4 3 3 3 3 1 1 1 2 2 3 4 5 4 5 4 4 7 6 5 6 4 4 4 5 5 5 6 5 6 6 5
9 11 14 13 12 12 12 14 14 11 12 15 14 14 13 12 8 9 8 8 8 8 8 7 7 6 6 6 6 6 6 5 5 6 4 4 4 3 4 4 4 3 3 3 3 1 1 1 0 1 0 2 2 4 3 5 3 5 4 5 6 5 6 5 3 5 5 5 5 6 6 5 6 4
15 15 14 14 12 11 10 8 7 8 9 11 12 12 12 8 8 8 9 8 9 8 7 8 9 7 6 6 7 7 7 7 6 6 5 6 4 3 4 5 5 4 4 3 2 0 0 1 0 1 1 3 3 4 4 4 6 6 5 4 6 6 2 4 6 6 5 6 5 5 6 5 5 3
8 10 11 8 8 6 8 8 5 4 2 3 5 6 8 8 8 9 11 11 10 9 8 6 6 6 6 6 6 5 5 6 4 4 6 5 4 4 4 5 3 3 4 4 2 1 1 2 1 1 2 3 3 4 5 4 6 6 6 4 3 3 6 6 5 6 6 6 6 6 6 6 6 3
5 4 2 1 1 2 2 2 1 1 3 5 6 7 8 7 7 7 9 8 7 6 7 7 8 7 7 7 6 4 5 5 5 4 5 5 3 3 3 3 1 1 3 4 5 4 3 1 2 2 1 2 2 4 3 4 6 6 5 4 4 5 5 6 6 6 5 5 6 6 7 5 6 6
3 1 1 1 2 4 4 4 6 6 6 4 5 7 7 7 8 8 8 10 9 9 10 10 9 8 7 6 5 5 5 5 5 3 5 4 6 1 3 5 3 1 1 4 4 5 4 4 1 2 3 3 4 5 3 4 5 3 3 6 5 6 6 6 5 5 5 5 6 6 7 7 4 4
0 0 1 1 2 1 1 2 3 6 6 6 6 6 7 8 9 8 8 9 9 8 9 9 9 8 7 6 6 6 6 5 3 1 3 3 3 4 3 4 2 0 0 2 3 3 4 3 5 5 2 3 4 6 5 4 5 5 4 4 5 5 6 5 5 4 3 4 5 6 6 7 6 3
2 3 3 4 3 2 3 3 1 4 4 2 7 7 7 7 9 9 9 9 8 9 9 8 8 8 8 7 6 6 6 6 5 5 3 5 5 5 5 3 1 1 1 3 5 4 2 4 5 5 5 5 5 2 4 4 1 5 4 4 5 5 6 5 5 6 5 4 2 4 6 6 6 5
4 3 4 4 4 3 3 2 2 2 1 4 4 3 8 7 7 10 10 9 10 9 9 9 8 7 7 6 6 6 6 6 5 5 4 5 5 4 3 2 0 1 1 1 4 4 3 3 1 3 4 5 6 7 4 4 4 4 4 5 5 5 5 5 5 4 5 5 3 3 5 7 8 7
4 4 5 5 4 5 5 3 5 5 5 4 2 4 2 5 5 8 9 9 10 9 9 8 8 7 7 6 6 5 5 6 5 5 5 4 4 4 2 1 1 1 2 4 2 4 2 3 3 4 3 4 4 5 7 3 4 4 3 4 5 5 5 5 5 6 5 4 5 4 4 5 6 7
4 4 5 4 4 4 4 5 6 6 5 5 3 4 4 4 6 7 7 9 8 8 8 8 7 7 7 6 7 6 5 5 6 6 5 4 4 2 1 0 2 2 3 4 3 3 3 2 3 2 2 3 4 5 7 6 6 2 5 1 5 6 3 4 4 5 6 5 4 6 4 4 4 5
5 5 6 6 5 5 5 6 6 7 8 6 4 5 5 4 5 6 7 7 8 7 7 7 6 6 7 6 6 7 7 6 6 5 4 3 2 2 0 1 2 2 2 5 5 4 3 2 3 3 2 3 4 5 5 6 6 8 7 5 4 4 4 2 4 4 4 4 6 6 2 3 5 4
5 5 5 4 5 5 5 6 7 9 9 8 8 9 9 9 7 7 7 6 7 7 7 7 7 6 6 6 7 6 6 6 7 5 4 2 1 1 1 2 2 1 2 3 4 5 5 5 4 4 4 5 5 4 4 5 5 5 7 6 2 4 4 2 4 4 3 3 4 5 7 6 6 5
4 5 5 5 5 6 6 6 6 7 8 8 8 7 8 8 8 7 6 7 7 7 7 6 6 6 6 6 6 8 7 5 4 3 2 1 1 3 4 2 1 0 1 4 3 4 5 5 5 6 5 4 4 2 1 2 6 6 6 5 4 4 3 4 3 1 1 2 3 2 3 5 4 4
4 5 4 4 6 6 6 6 5 5 6 7 7 7 7 6 6 9 9 9 8 8 7 7 6 6 6 6 6 7 7 6 5 2 3 2 2 0 1 1 1 1 0 2 3 5 6 3 3 3 1 1 1 2 3 3 5 6 6 5 4 3 5 5 6 4 2 0 2 3 3 3 2 3
4 4 4 4 4 4 5 6 6 6 6 6 6 7 7 6 6 7 6 7 7 7 7 6 5 6 6 6 6 7 6 5 5 4 3 1 1 1 1 2 3 2 2 3 4 4 5 4 2 4 3 2 1 0 3 5 4 5 6 6 6 3 1 1 3 3 2 1 1 2 2 1 1 4
2 2 3 5 5 5 5 6 6 6 6 6 6 6 6 6 6 6 6 6 7 7 6 6 5 6 6 6 6 6 6 6 5 4 2 1 3 3 3 3 2 2 1 1 4 4 4 4 3 2 4 4 2 2 4 5 5 3 4 5 4 4 2 1 2 3 2 2 2 2 3 4 5 6
2 3 3 3 3 4 5 5 6 7 7 7 6 6 6 6 6 5 5 6 6 6 6 6 6 6 6 6 7 6 5 3 4 2 2 2 4 3 2 2 0 2 2 1 2 4 4 5 4 2 2 3 2 2 4 4 4 5 4 4 6 4 2 0 0 1 2 3 4 2 2 3 4 6
Wind_Direction
153 149 169 179 166 176 171 160 143 138 145 156 151 155 155 155 133 144 169 230 186 246 178 164 249 196 206 237 260 270 264 259 203 100 78 341 329 336 4 8 20 30 31 37 44 46 41 46 50 58 52 50 54 50 48 63 62 59 38 50 47 43 30 24 28 27 29 31 30 25 20 15 15 14
127 120 101 124 146 153 162 170 155 154 154 149 159 147 135 149 151 161 163 217 205 194 231 186 206 188 210 201 236 223 253 243 188 154 138 288 282 291 298 355 358 353 355 2 10 16 20 17 19 34 49 61 59 55 46 45 57 50 53 51 66 53 39 18 14 26 29 29 29 22 12 8 7 9
97 100 96 81 93 126 146 148 153 153 151 157 141 136 137 189 154 154 137 136 245 167 193 238 223 195 200 196 198 220 236 243 204 146 139 272 275 271 275 271 300 316 314 321 333 335 339 353 355 355 352 337 324 316 320 338 343 3 32 51 73 71 55 26 4 17 23 22 26 23 11 4 5 5
108 126 106 101 118 123 128 137 150 159 157 147 148 152 148 126 121 135 142 150 195 213 195 214 240 205 171 178 197 233 239 215 200 148 181 231 260 276 280 281 260 267 296 303 309 322 338 355 343 327 313 305 301 290 288 288 289 287 286 305 334 5 50 23 349 353 5 14 14 19 11 6 9 7
111 98 100 92 89 117 127 139 137 142 144 136 144 143 139 142 153 145 125 130 140 192 217 206 218 190 132 189 206 230 234 208 152 170 196 206 214 239 252 269 268 243 255 285 298 315 334 343 333 317 303 300 300 296 291 287 278 262 247 246 260 276 303 319 327 336 354 12 13 18 16 10 12 6
81 98 104 99 91 104 125 139 146 151 145 152 150 170 161 165 177 184 111 141 137 191 239 250 305 129 159 215 173 204 225 195 158 188 210 216 210 231 242 262 272 254 235 261 290 311 330 324 313 309 314 313 303 292 288 283 281 273 256 237 237 238 249 268 294 309 343 6 9 18 21 11 3 3
109 93 102 114 115 113 102 109 128 132 143 156 167 178 175 169 178 192 160 125 145 171 217 208 191 185 171 199 221 214 211 172 182 185 213 219 221 228 208 246 275 320 295 263 294 313 303 300 298 305 312 319 328 325 306 295 290 286 276 251 231 232 240 256 283 302 317 358 11 15 14 7 355 357
120 130 115 129 120 116 112 126 123 134 140 152 160 167 181 170 174 176 162 156 141 174 167 234 194 201 172 239 261 84 159 175 208 223 216 180 226 230 195 230 321 321 283 217 246 276 290 294 299 308 322 331 349 359 357 341 321 305 288 266 250 249 258 271 277 288 299 2 15 8 4 356 351 346
138 142 141 160 141 127 122 144 146 159 155 160 151 162 169 173 170 153 157 151 130 145 181 202 236 182 212 211 173 180 157 195 185 34 164 222 235 260 52 163 229 226 108 162 206 273 300 300 320 336 358 50 50 41 35 28 18 8 349 315 258 233 237 253 265 275 285 9 23 356 353 345 337 336
163 153 158 166 157 141 139 167 165 155 149 139 145 150 162 153 136 141 133 127 143 165 184 173 199 257 196 205 175 203 168 149 135 65 44 59 37 90 68 25 43 88 115 86 55 352 319 310 6 54 51 47 45 41 39 36 32 26 18 8 349 283 243 253 265 274 287 4 352 325 323 323 324 328
188 179 165 164 166 150 150 151 166 156 147 153 166 168 160 153 145 149 164 154 157 172 175 207 204 203 250 174 177 244 167 125 147 154 123 67 16 48 85 85 25 44 37 23 153 241 237 43 53 53 54 49 45 45 43 42 42 41 37 29 19 0 316 289 286 293 303 326 299 279 292 304 313 317
203 204 195 176 176 172 177 168 172 157 158 154 175 191 148 149 151 166 166 162 164 172 188 193 205 207 188 224 21 84 104 108 38 159 141 159 143 89 35 100 118 344 25 336 349 319 27 31 42 46 51 46 43 45 48 46 48 46 44 42 36 28 11 345 320 312 312 311 296 283 286 290 298 303
266 259 241 218 190 191 195 194 176 180 163 154 169 193 161 159 163 167 171 176 170 184 185 210 182 165 186 214 162 151 146 183 192 181 123 131 130 144 117 100 49 97 172 355 33 7 12 37 39 34 46 33 38 37 45 46 49 49 50 48 44 40 35 26 14 358 343 327 306 296 290 289 292 292
282 273 277 276 248 215 206 205 202 196 187 183 166 171 168 166 162 170 175 178 185 173 186 203 182 195 217 206 198 187 213 153 104 119 139 139 162 98 100 353 284 331 98 119 60 354 8 91 64 43 58 23 37 37 43 50 61 53 51 49 45 41 36 32 25 18 8 355 336 315 307 302 298 291
246 261 268 272 278 262 248 239 231 218 213 208 191 168 173 171 165 165 177 196 177 180 195 184 182 194 209 224 197 194 159 148 163 165 151 133 136 151 146 188 302 307 72 86 82 14 350 41 76 34 50 35 33 36 51 65 61 56 51 47 44 36 31 26 23 19 8 360 350 335 324 317 311 305
234 243 251 257 255 250 233 222 210 229 237 241 236 195 186 191 194 180 171 176 194 200 183 188 207 180 206 199 178 175 144 148 103 119 134 137 146 133 134 168 152 278 17 116 96 30 336 19 68 45 20 36 20 37 48 58 61 56 50 47 39 30 21 13 9 7 359 351 342 336 331 323 317 314
220 224 232 247 247 241 237 205 148 173 348 5 354 336 206 160 162 218 269 252 197 173 184 193 214 208 185 167 210 195 174 151 139 146 111 130 135 144 142 189 176 296 3 73 61 77 327 22 44 36 315 78 300 24 22 42 57 57 57 49 37 22 8 359 354 351 347 342 340 338 335 330 326 326
219 214 212 222 235 230 207 188 170 152 129 134 133 70 12 353 357 2 358 336 273 198 193 189 214 222 175 195 194 189 156 149 160 157 161 147 136 145 153 171 130 6 359 153 127 43 305 2 47 360 292 93 359 334 357 350 1 47 59 42 27 8 356 349 341 341 339 337 339 339 337 334 329 324
229 226 219 212 218 214 208 207 183 158 157 155 161 139 162 121 47 4 3 1 357 335 280 228 223 213 204 196 161 154 180 157 155 155 160 168 153 130 97 65 40 38 32 70 98 212 255 324 28 283 286 325 333 286 282 279 286 354 11 359 354 350 347 337 336 335 335 335 338 337 337 334 329 324
237 236 228 228 226 216 215 213 184 169 165 174 155 182 206 170 193 126 167 161 77 277 280 285 274 230 174 170 154 149 137 109 109 90 87 88 94 107 98 118 337 42 324 54 98 101 265 307 50 285 291 329 305 283 273 278 288 332 7 342 330 334 335 334 334 334 331 332 334 335 334 334 329 326
238 229 220 221 229 225 224 202 181 177 162 167 187 210 219 209 196 224 264 75 72 44 24 13 39 105 115 110 107 116 130 133 134 114 106 117 127 117 113 109 58 103 318 338 77 124 218 282 228 290 281 305 279 298 297 305 309 355 339 329 321 323 327 329 327 324 324 326 330 332 336 338 333 330
247 232 219 209 208 211 224 221 204 191 172 187 193 190 202 210 220 238 214 72 60 95 82 68 72 73 78 86 92 107 120 134 139 131 151 175 125 127 139 172 176 225 333 282 120 106 215 292 238 266 295 334 283 283 283 307 337 336 324 322 317 314 316 315 315 318 320 325 329 334 337 336 340 336
233 252 242 224 213 204 202 208 220 212 197 202 193 194 191 201 215 207 169 157 120 99 101 85 88 62 61 75 88 93 95 87 64 87 124 133 129 143 167 137 111 88 271 272 143 183 269 56 306 89 357 356 287 288 280 314 313 316 318 315 313 300 307 311 310 313 317 323 326 330 332 329 342 335
262 240 245 242 233 224 211 206 214 217 211 205 195 167 192 197 222 178 163 179 159 159 142 122 81 83 54 52 69 72 74 65 68 91 123 144 137 146 157 167 150 170 198 259 208 189 221 162 323 41 140 319 303 297 335 312 301 302 303 307 308 304 312 311 313 311 314 319 322 323 327 325 329 335
268 269 256 250 240 229 226 222 219 218 217 220 196 184 198 208 173 143 168 165 151 138 127 117 108 96 89 79 69 70 69 73 79 83 84 116 133 136 143 140 120 128 228 248 237 115 153 164 293 15 20 130 245 319 288 303 299 290 292 305 295 302 313 307 306 307 312 319 316 317 319 322 320 319
262 256 259 252 244 237 230 223 221 219 219 219 198 205 215 138 150 173 162 148 135 108 115 122 127 128 123 116 106 98 87 79 77 81 84 81 83 107 147 150 150 144 175 259 198 126 115 3 160 85 300 2 293 239 298 294 280 288 310 300 281 280 291 293 309 305 312 310 307 310 310 314 312 314
264 261 258 258 254 237 231 228 224 219 211 197 196 196 179 177 170 151 138 144 148 144 146 143 145 145 142 137 133 119 105 94 96 95 94 98 96 89 85 97 124 135 158 99 70 110 98 99 188 131 258 212 274 292 271 280 297 308 319 306 306 299 292 294 297 302 305 309 307 314 319 313 314 320
266 269 263 257 257 242 232 230 227 221 201 201 208 204 194 172 154 145 151 164 157 148 148 144 144 152 152 122 116 122 125 124 115 108 105 94 93 100 90 77 75 83 85 69 66 91 107 119 318 193 187 243 257 272 281 271 282 283 284 298 295 279 300 314 313 311 312 314 312 316 327 321 313 325
261 261 267 268 259 247 237 232 230 228 222 219 214 210 189 158 156 163 164 156 150 152 159 155 145 143 148 137 128 127 121 119 104 95 81 83 81 88 97 92 79 57 56 51 62 103 135 142 231 285 3 191 219 263 262 272 284 289 287 307 314 317 312 309 324 316 310 314 312 312 305 298 304 312
271 274 275 266 255 248 244 240 227 223 226 224 213 199 174 170 169 164 157 154 159 158 151 151 153 149 132 123 135 138 139 129 134 132 119 104 69 83 97 77 37 22 34 26 32 99 151 178 212 193 265 280 238 259 268 286 291 274 285 281 274 297 293 332 326 320 321 320 318 309 298 294 286 307
263 263 260 251 246 259 260 252 265 245 175 148 174 179 181 179 172 170 169 165 150 149 145 138 116 114 111 109 118 142 137 127 131 124 121 110 114 103 92 97 71 17 339 344 328 328 349 333 316 174 301 289 300 267 265 249 269 281 289 282 320 319 300 325 316 319 320 318 317 310 306 315 312 300
288 296 315 337 79 135 136 171 137 204 187 189 174 180 180 171 161 139 116 103 121 118 123 112 111 109 125 133 135 127 122 123 121 118 111 113 110 141 139 72 75 326 328 334 327 331 353 318 310 297 223 240 259 282 280 250 255 268 279 296 311 296 300 305 312 311 322 328 327 323 312 309 309 315
340 26 43 110 178 176 181 183 193 185 169 181 185 170 159 151 146 143 148 140 139 140 131 135 137 140 127 126 131 127 116 124 131 111 101 117 129 107 73 111 132 108 2 319 315 319 328 325 306 267 269 270 232 235 244 289 281 251 291 305 324 314 311 303 302 307 327 337 321 315 316 312 305 295
153 131 174 186 190 226 320 280 212 184 179 167 164 168 153 147 144 144 138 133 137 134 130 132 132 138 137 138 143 135 133 123 97 120 132 132 121 91 84 88 65 249 158 284 309 310 317 322 335 326 288 266 246 230 209 207 257 297 290 294 308 311 299 305 310 314 324 281 284 309 311 312 313 293
179 197 195 214 204 189 157 157 139 340 318 227 159 160 160 153 144 136 128 132 130 128 127 129 133 142 145 147 149 142 142 135 131 96 96 103 84 105 120 103 61 334 327 327 322 311 310 328 348 346 335 335 333 307 242 185 224 282 296 304 297 300 301 310 319 323 325 307 271 294 303 299 314 318
231 201 206 198 178 139 109 75 69 86 85 326 303 190 145 147 144 136 137 140 131 130 126 131 140 144 139 140 142 133 129 121 113 106 91 92 100 98 89 111 143 277 297 269 294 297 309 316 343 352 350 341 348 331 347 208 223 277 312 311 306 304 297 308 315 312 309 304 291 293 319 321 321 324
226 214 199 182 181 164 155 128 105 98 76 50 24 339 352 121 118 121 125 126 120 124 131 135 138 134 128 123 115 113 121 119 113 110 103 94 93 92 68 9 341 285 330 297 277 293 297 320 356 11 351 331 332 317 301 308 302 260 243 287 296 292 298 317 327 318 301 288 305 328 318 316 314 319
225 214 207 198 186 180 150 138 128 114 99 99 97 84 68 58 80 97 104 106 113 118 129 128 132 128 127 129 120 110 95 99 108 103 109 105 99 93 129 356 304 304 294 292 304 303 302 299 325 308 299 316 304 308 317 324 331 308 163 222 286 295 317 321 315 312 313 313 318 325 330 327 319 324
213 206 214 205 194 173 160 156 147 138 138 137 133 115 112 110 108 107 110 114 117 119 119 117 115 121 123 121 119 125 121 109 101 118 130 135 127 133 129 255 297 304 345 328 329 329 355 333 298 287 263 285 295 296 296 304 298 303 303 293 245 285 290 272 289 298 297 322 338 328 302 246 253 285
222 210 209 187 184 176 165 159 161 159 155 154 150 149 146 145 142 135 124 123 123 121 117 117 120 116 114 122 119 108 104 119 133 150 154 150 155 160 232 227 229 269 345 324 334 331 337 308 289 293 291 261 256 259 265 266 271 279 279 303 234 196 250 293 289 299 309 1 337 355 346 348 3 345
212 205 207 189 170 167 162 167 164 158 149 146 145 150 143 140 134 134 136 131 122 118 118 124 125 122 127 128 122 119 115 117 129 136 140 138 172 203 227 237 321 189 348 319 315 315 305 287 280 271 254 255 262 272 285 318 312 310 318 312 348 9 319 239 241 304 353 312 327 319 343 330 327 331
223 224 206 190 181 169 157 149 143 139 135 137 140 135 126 120 123 124 119 116 116 120 120 119 122 122 121 123 115 110 122 139 156 179 169 170 208 247 184 185 285 268 145 296 290 285 283 294 293 291 288 302 27 21 314 297 290 305 301 310 325 349 19 57 87 107 144 175 17 16 332 316 336 342
202 200 187 176 149 147 142 133 128 127 124 122 112 108 107 110 115 109 111 119 120 115 117 119 126 124 127 118 115 120 123 151 168 177 189 190 178 222 253 233 230 242 221 259 272 266 286 305 319 333 337 38 74 194 289 293 287 288 299 316 321 325 323 343 132 119 95 74 256 232 189 229 341 346
177 150 146 144 140 134 122 116 111 111 112 107 107 108 113 117 109 112 117 115 113 114 120 125 129 125 124 118 116 124 141 164 170 163 168 195 210 216 215 240 257 259 249 283 307 316 319 326 333 342 347 346 327 318 298 301 297 290 288 291 295 313 311 228 273 311 306 281 302 262 240 229 228 234
95 97 98 83 91 100 105 103 109 106 104 104 101 97 92 90 99 104 106 110 115 124 128 130 127 122 120 129 129 148 182 122 111 157 187 220 233 216 201 226 272 319 336 336 341 333 339 330 328 358 350 330 312 268 287 276 283 301 294 296 304 316 326 241 278 298 328 318 285 262 192 219 249 261